Powrót do katalogu

STARLINK-1598

AktywnyŁącznośćVLEO
NORAD 46160·PAYLOAD·🇺🇸 United States

Wystrzelony Aug 18, 2020 z Cape Canaveral Space Force Station

Loading…

Następne Przeloty (najbliższe 24 godziny)

TLE

ŚwieżeSource: CelesTrak SupGP

Epoka: Sep 14, 2026, 15:34 UTC

1 46160C 20057AV  26257.64909722  .05251800  00000+0  12416-2 0  2575
2 46160  53.0220  61.9301 0011749 292.1658 276.7411 16.28647806    13

Śledź STARLINK-1598 w czasie rzeczywistym z AllMySat

Download on the App Store